Location: Bas-Clignon
(44.2000°N, 6.6333°E)
Time: 03:02:27
(UTC+00:00)

Cosmos 2263 Rocket - Pass Details

Date: 03 February 2023
Orbit: 824 x 847 km, 71.0° (Epoch: 27 March)

Event Time Altitude Azimuth Distance (km) Brightness Sun altitude
Rises 17:10:42 0° 331° (NNW) 3,372 5.5 -5.1°
Reaches altitude 10° 17:13:10 10° 328° (NNW) 2,434 4.8 -5.5°
Maximum altitude 17:18:37 59° 250° (WSW) 952 2.9 -6.4°
Drops below altitude 10° 17:24:03 10° 172° (S) 2,419 4.7 -7.3°
Sets 17:26:30 0° 169° (SSE) 3,350 5.4 -7.8°
